Watersmeet, MI

1:31 PM CST on February 25, 2017 (GMT -0600)
Kings Land O'Lakes

Weather History for KLNL - February, 2013

Change the Weather History Date:

Tuesday, February 19, 2013

  Actual Average (KEGV) Record (KEGV)
Temperature  
Mean Temperature 17 °F -  
Max Temperature 26 °F 28 °F 54 °F (2017)
Min Temperature 8 °F 11 °F -26 °F (2015)
Degree Days  
Heating Degree Days 48    
Moisture  
Dew Point 8 °F    
Average Humidity 80    
Maximum Humidity 100    
Minimum Humidity 67    
Precipitation  
Precipitation 0.00 in - - ()
Sea Level Pressure  
Sea Level Pressure 29.73 in    
Wind  
Wind Speed 14 mph (NW)    
Max Wind Speed 22 mph    
Max Gust Speed 31 mph    
Visibility 2 miles    
Events Snow    
Averages and records for this station are not official NWS values.
T = Trace of Precipitation, MM = Missing Value Source: NWS Daily Summary

Daily Weather History Graph

Daily Weather History Graph

Search for Another Location

Airport or City:

Trip Planner

Search our weather history database for the weather conditions in past years. The results will help you decide how hot, cold, wet, or windy it might be!

Date:

Astronomy

Feb. 19, 2013 Rise Set
Actual Time 6:52 AM CST 5:29 PM CST
Civil Twilight 6:22 AM CST 5:59 PM CST
Nautical Twilight 5:47 AM CST 6:34 PM CST
Astronomical Twilight 5:12 AM CST 7:09 PM CST
Moon 11:50 AM CST (2/19) 2:34 AM CST (2/19)
Length of Visible Light 11h 37m
Length of Day
10h 36m
Waxing Gibbous, 67% of the Moon is Illuminated
Feb 19
Waxing Gibbous
Feb 25
Full
Mar 4
Last Quarter
Mar 11
New
Mar 19
First Quarter

Hourly Weather History & Observations

Time (CST) Temp. Windchill Dew Point Humidity Pressure Visibility Wind Dir Wind Speed Gust Speed Precip Events Conditions
12:15 AM 26.6 °F 18.2 °F 24.8 °F 93% 29.43 in 5.0 mi NW 8.1 mph - N/A   Overcast
12:35 AM 26.6 °F 16.8 °F 26.6 °F 100% 29.42 in 4.0 mi NNW 10.4 mph 23.0 mph N/A   Overcast
12:55 AM 26.6 °F 15.2 °F 24.8 °F 93% 29.43 in 5.0 mi NNW 13.8 mph 20.7 mph N/A   Overcast
1:15 AM 26.6 °F 15.2 °F 24.8 °F 93% 29.42 in 5.0 mi North 13.8 mph 19.6 mph N/A Snow Light Snow
1:35 AM 26.6 °F 12.4 °F 24.8 °F 93% 29.43 in 2.5 mi North 21.9 mph 28.8 mph N/A Snow Light Snow
3:15 AM 19.4 °F 7.2 °F 15.8 °F 86% 29.47 in 0.8 mi NNW 11.5 mph 19.6 mph N/A Snow Snow
3:35 AM 19.4 °F 5.5 °F 14.0 °F 80% 29.47 in 1.2 mi NNW 15.0 mph 27.6 mph N/A Snow Light Snow
3:55 AM 17.6 °F 0.9 °F 14.0 °F 86% 29.47 in 1.2 mi North 20.7 mph 28.8 mph N/A Snow Light Snow
4:15 AM 17.6 °F 3.2 °F 14.0 °F 86% 29.48 in 1.0 mi NNW 15.0 mph 27.6 mph N/A Snow Snow
4:35 AM 17.6 °F 2.7 °F 12.2 °F 79% 29.48 in 1.8 mi NNW 16.1 mph 27.6 mph N/A Snow Light Snow
4:55 AM 15.8 °F 2.7 °F 12.2 °F 86% 29.49 in 1.2 mi NNW 11.5 mph 17.3 mph N/A Snow Light Snow
5:15 AM 14.0 °F -3.0 °F 10.4 °F 86% 29.51 in 1.5 mi NW 18.4 mph 24.2 mph N/A Snow Light Snow
5:35 AM 14.0 °F -2.5 °F 10.4 °F 86% 29.52 in 1.5 mi NW 17.3 mph 23.0 mph N/A Snow Light Snow
5:55 AM 14.0 °F -0.2 °F 10.4 °F 86% 29.53 in 1.8 mi NNW 12.7 mph 24.2 mph N/A Snow Light Snow
6:15 AM 14.0 °F -0.2 °F 8.6 °F 79% 29.54 in 2.0 mi NW 12.7 mph 26.5 mph N/A Snow Light Snow
6:35 AM 12.2 °F -1.8 °F 8.6 °F 85% 29.55 in 2.0 mi NNW 11.5 mph 21.9 mph N/A Snow Light Snow
6:55 AM 12.2 °F -1.0 °F 8.6 °F 85% 29.57 in 1.8 mi NW 10.4 mph 23.0 mph N/A Snow Light Snow
7:15 AM 12.2 °F 0.7 °F 8.6 °F 85% 29.58 in 0.5 mi NW 8.1 mph 18.4 mph N/A Snow Snow
7:35 AM 12.2 °F -1.8 °F 8.6 °F 85% 29.59 in 0.5 mi NW 11.5 mph 18.4 mph N/A Snow Light Snow
7:55 AM 12.2 °F -5.3 °F 8.6 °F 85% 29.60 in 1.2 mi NW 18.4 mph 27.6 mph N/A Snow Light Snow
8:15 AM 12.2 °F -3.1 °F 8.6 °F 85% 29.61 in 1.0 mi NW 13.8 mph 24.2 mph N/A Snow Light Snow
8:35 AM 12.2 °F -3.7 °F 6.8 °F 79% 29.62 in 1.2 mi NW 15.0 mph 23.0 mph N/A Snow Light Snow
8:55 AM 12.2 °F -4.8 °F 6.8 °F 79% 29.63 in 1.2 mi WNW 17.3 mph 21.9 mph N/A Snow Light Snow
9:15 AM 12.2 °F -2.5 °F 6.8 °F 79% 29.63 in 1.2 mi NW 12.7 mph 17.3 mph N/A Snow Light Snow
9:35 AM 12.2 °F -0.2 °F 6.8 °F 79% 29.64 in 0.8 mi NW 9.2 mph 20.7 mph N/A Snow Light Snow
9:55 AM 12.2 °F -0.2 °F 8.6 °F 85% 29.65 in 0.5 mi NNW 9.2 mph 18.4 mph N/A Snow Light Snow
10:15 AM 12.2 °F -4.8 °F 6.8 °F 79% 29.66 in 1.5 mi NNW 17.3 mph 20.7 mph N/A Snow Light Snow
10:35 AM 12.2 °F -5.8 °F 5.0 °F 73% 29.67 in 1.2 mi NNW 19.6 mph 29.9 mph N/A Snow Light Snow
10:55 AM 12.2 °F -3.7 °F 6.8 °F 79% 29.67 in 1.0 mi NNW 15.0 mph 24.2 mph N/A Snow Light Snow
11:15 AM 12.2 °F -4.3 °F 6.8 °F 79% 29.69 in 0.5 mi NNW 16.1 mph 23.0 mph N/A Snow Light Snow
11:35 AM 12.2 °F -4.3 °F 6.8 °F 79% 29.69 in 1.0 mi NW 16.1 mph 23.0 mph N/A Snow Light Snow
11:55 AM 12.2 °F -3.7 °F 5.0 °F 73% 29.70 in 2.0 mi NW 15.0 mph 24.2 mph N/A   Haze
12:15 PM 12.2 °F -3.7 °F 5.0 °F 73% 29.71 in 1.0 mi NW 15.0 mph 27.6 mph N/A Snow Light Snow
12:35 PM 12.2 °F -3.7 °F 5.0 °F 73% 29.72 in 1.5 mi NW 15.0 mph 25.3 mph N/A   Haze
12:55 PM 12.2 °F -3.7 °F 5.0 °F 73% 29.73 in 2.0 mi NNW 15.0 mph 26.5 mph N/A   Haze
1:15 PM 12.2 °F -4.8 °F 5.0 °F 73% 29.74 in 1.0 mi NW 17.3 mph 24.2 mph N/A Snow Light Snow
1:35 PM 12.2 °F -5.8 °F 5.0 °F 73% 29.75 in 1.2 mi NNW 19.6 mph 31.1 mph N/A Snow Light Snow
1:55 PM 10.4 °F -4.1 °F 5.0 °F 79% 29.76 in 1.0 mi NW 11.5 mph 24.2 mph N/A Snow Light Snow
2:15 PM 10.4 °F -6.6 °F 3.2 °F 73% 29.77 in 1.8 mi NW 16.1 mph 26.5 mph N/A Snow Light Snow
2:35 PM 10.4 °F -8.2 °F 5.0 °F 79% 29.79 in 0.5 mi NW 19.6 mph 24.2 mph N/A Snow Light Snow
3:15 PM 10.4 °F -7.2 °F 1.4 °F 67% 29.81 in 1.8 mi NW 17.3 mph 26.5 mph N/A   Haze
3:35 PM 8.6 °F -7.0 °F 3.2 °F 79% 29.83 in 2.0 mi WNW 12.7 mph 24.2 mph N/A   Haze
3:55 PM 8.6 °F -8.3 °F 3.2 °F 79% 29.85 in 1.5 mi NW 15.0 mph 19.6 mph N/A Snow Light Snow
4:15 PM 8.6 °F -5.5 °F 1.4 °F 73% 29.86 in 1.5 mi NW 10.4 mph 24.2 mph N/A Snow Light Snow
4:35 PM 8.6 °F -3.7 °F 1.4 °F 73% 29.87 in 3.0 mi WNW 8.1 mph 17.3 mph N/A   Haze
4:55 PM 8.6 °F -5.5 °F 1.4 °F 73% 29.88 in 5.0 mi WNW 10.4 mph 20.7 mph N/A   Haze
5:15 PM 8.6 °F -7.7 °F 1.4 °F 73% 29.89 in 4.0 mi NW 13.8 mph 20.7 mph N/A Snow Light Snow
6:35 PM 8.6 °F -7.0 °F 3.2 °F 79% 29.92 in 4.0 mi NW 12.7 mph 23.0 mph N/A Snow Light Snow
6:55 PM 8.6 °F -6.3 °F 3.2 °F 79% 29.92 in 4.0 mi NNW 11.5 mph 18.4 mph N/A Snow Light Snow
7:15 PM 8.6 °F -8.3 °F 5.0 °F 85% 29.93 in 4.0 mi NNW 15.0 mph 21.9 mph N/A Snow Light Snow
7:35 PM 10.4 °F -5.4 °F 5.0 °F 79% 29.94 in 3.0 mi NW 13.8 mph 24.2 mph N/A Snow Light Snow
7:55 PM 10.4 °F -6.0 °F 5.0 °F 79% 29.94 in 3.0 mi NNW 15.0 mph 21.9 mph N/A Snow Light Snow
8:15 PM 10.4 °F -5.4 °F 5.0 °F 79% 29.95 in 2.5 mi NNW 13.8 mph 26.5 mph N/A   Haze
8:35 PM 10.4 °F -4.8 °F 5.0 °F 79% 29.96 in 2.5 mi NW 12.7 mph 20.7 mph N/A Snow Light Snow
8:55 PM 10.4 °F -4.1 °F 5.0 °F 79% 29.97 in 2.5 mi NNW 11.5 mph 20.7 mph N/A Snow Light Snow
9:15 PM 10.4 °F -4.8 °F 5.0 °F 79% 29.98 in 2.5 mi NNW 12.7 mph 18.4 mph N/A Snow Light Snow
9:35 PM 10.4 °F -5.4 °F 5.0 °F 79% 29.98 in 2.5 mi NNW 13.8 mph 21.9 mph N/A Snow Light Snow
9:55 PM 10.4 °F -6.6 °F 5.0 °F 79% 29.99 in 2.5 mi North 16.1 mph 26.5 mph N/A Snow Light Snow
10:15 PM 10.4 °F -5.4 °F 5.0 °F 79% 30.00 in 2.0 mi NNW 13.8 mph 18.4 mph N/A Snow Light Snow
10:35 PM 10.4 °F -6.6 °F 5.0 °F 79% 30.01 in 2.0 mi NNW 16.1 mph 23.0 mph N/A Snow Light Snow
10:55 PM 8.6 °F -6.3 °F 5.0 °F 85% 30.02 in 3.0 mi NNW 11.5 mph 19.6 mph N/A Snow Light Snow
11:15 PM 10.4 °F -6.0 °F 5.0 °F 79% 30.03 in 2.5 mi NNW 15.0 mph 24.2 mph N/A Snow Light Snow
11:35 PM 10.4 °F -6.0 °F 3.2 °F 73% 30.04 in 3.0 mi NNW 15.0 mph 25.3 mph N/A Snow Light Snow
11:55 PM 10.4 °F -9.1 °F 3.2 °F 73% 30.05 in 3.0 mi North 21.9 mph 28.8 mph N/A Snow Light Snow